Orbital Elements at Epoch 2459000.5 (2020-May-31.0) TDB
Reference: JPL 16 (heliocentric ecliptic J2000)
Element | Value | Uncertainty (1-sigma) | Units |
e | .07974307030974478 | 4.5152e-08 | |
a | 3.108088995912331 | 3.8418e-08 | au |
q | 2.86024043658235 | 1.5242e-07 | au |
i | 9.379369194916173 | 4.6521e-06 | deg |
node | 127.5720366213811 | 3.9141e-05 | deg |
peri | 191.5009204397058 | 5.607e-05 | deg |
M | 258.1269113976733 | 4.2201e-05 | deg |
tp | 2459566.863905751683 (2021-Dec-18.36390575) | 0.00023858 | TDB |
period | 2001.421659713466 5.48 | 3.7109e-05 1.016e-07 | d yr |
n | .1798721415114192 | 3.335e-09 | deg/d |
Q | 3.355937555242313 | 4.1482e-08 | au |
|
| | Orbit Determination Parameters
Additional Information
|